Content
SEND FEEDBACK

Daily
Averages
Monthly
Summary
Mexico

PUEBLA - JARDINES DE SAN MANUEL, PUEBLA


Home > North America > Mexico > Puebla
Elevation: 6962 feet     Latitude: 19 00N     Longitude: 098 11W

WEATHER
 
SELECT A DAY
Number of Records: 125,415;   Date Range: 1/1/95 - 12/17/14
 
SHARE

PRINT THIS DATA

[ ← Previous Day ]
WEATHER ALMANAC - DECEMBER 8, 2013
[ Next Day → ]
[ °C ]   °F
Weather ElementAverageHighLow
Temperature59.3 °F74 °F (2:55 pm)39.2 °F (6:00 am)
Dewpoint39.5 °F44.6 °F (5:41 pm)33.8 °F (6:00 am)
Humidity49.4 %81 % (6:00 am)15 % (11:50 am)
Barometer30.24 in30.42 in (8:44 am)29.78 in (5:45 pm)
Wind Speed7.2 mph19.6 mph (1:42 pm)
Weather ElementAverage
Visibility8.6 mi
Wind DirectionSSW (215.7 °)

Weather ElementTotal
Precipitation---
Heating Degree Days8.4 (Base 65)
Growing Degree Days6.6 (Base 50)
Averaged from 26 records on December 8, 2013
WEATHER CONDITIONS BREAKOUT
WIND DIRECTION BREAKOUT
WEATHER BY HOUR - DECEMBER 8, 2013
[ °C ]   °F
Local TimeTemperatureDewpointHumidityBarometerVisibilityWind DirectionWind SpeedGust SpeedPrecipitationEventsConditions
5:50 AM46.0 °F41.0 °F78 %30.02 in3.0 miCalm
6:00 AM39.2 °F33.8 °F81 %30.38 in8.0 miNNW (340°)6.9 mphClear
6:44 AM39.2 °F33.8 °F81 %30.39 in9.0 miNNW (330°)8.1 mphClear
7:43 AM42.8 °F35.6 °F76 %30.40 in9.0 miNNW (340°)6.9 mphClear
8:44 AM51.8 °F39.2 °F62 %30.42 in9.0 miNorth (350°)8.1 mphClear
8:55 AM58.0 °F38.0 °F35 %30.10 in3.0 miNorth2.2 mphHaze
9:40 AM60.8 °F42.8 °F52 %30.41 in9.0 miNorth (350°)6.9 mphClear
10:41 AM66.2 °F41.0 °F40 %30.40 in9.0 miENE (70°)4.6 mphPartly Cloudy
11:48 AM69.8 °F37.4 °F31 %30.38 in11.0 miSE (130°)5.8 mphScattered Clouds
11:50 AM71.0 °F34.0 °F15 %30.03 in6.0 miNorth4.5 mphHaze
12:45 PM73.4 °F37.4 °F27 %30.34 in11.0 miSouth (170°)17.3 mphScattered Clouds
1:42 PM73.4 °F41.0 °F31 %30.32 in12.0 miSouth (180°)19.6 mphScattered Clouds
2:43 PM73.4 °F42.8 °F33 %30.30 in12.0 miSSW (200°)10.4 mphScattered Clouds
2:55 PM74.0 °F36.0 °F15 %29.86 in6.0 miSouth (180°)11.2 mphHaze
3:43 PM73.4 °F42.8 °F33 %30.29 in12.0 miSouth (180°)13.8 mphScattered Clouds
4:45 PM69.8 °F42.8 °F38 %30.29 in12.0 miSSW (210°)16.1 mphScattered Clouds
5:41 PM64.4 °F44.6 °F49 %30.31 in12.0 miSouth (190°)6.9 mphScattered Clouds
5:45 PM69.0 °F35.0 °F17 %29.78 in6.0 miSSW (210°)2.2 mphHaze
6:41 PM55.4 °F44.6 °F67 %30.33 in11.0 miSSE (150°)6.9 mphScattered Clouds
7:43 PM53.6 °F42.8 °F67 %30.35 in10.0 miSouth (170°)6.9 mphScattered Clouds
8:41 PM51.8 °F41.0 °F67 %30.36 in10.0 miWest (260°)4.6 mphScattered Clouds
8:50 PM61.0 °F38.0 °F31 %29.80 in3.0 miCalm
9:53 PM51.8 °F41.0 °F67 %30.37 in10.0 miNNW (330°)5.8 mphPartly Cloudy
10:40 PM50.0 °F41.0 °F71 %30.37 in9.0 miNW (320°)6.9 mphScattered Clouds
11:43 PM46.4 °F39.2 °F76 %30.36 in9.0 miWNW (300°)4.6 mphScattered Clouds
11:50 PM56.0 °F40.0 °F45 %29.85 in3.0 miCalm
Hourly data recorded from MMPB, located miles away from Puebla - Jardines de San Manuel, Puebla







STORIES FROM OUR PARTNERS